Back to catalog

DMSP 5D-2 F13 DEB

AlivePO
NORAD 40462·DEBRIS·🇺🇸 United States

Launched Mar 24, 1995 from Vandenberg Space Force Base

Loading…

Next Passes (next 24 hours)

TLE

FreshSource: Space-Track

Epoch: Sep 14, 2026, 14:17 UTC

1 40462U 95015BE  26257.59566142  .00007057  00000-0  18643-2 0  9999
2 40462  98.9574 309.8214 0033298 101.4314 259.0621 14.48877563594743

Track DMSP 5D-2 F13 DEB in real time with AllMySat

Download on the App Store